| time (UTC) | temp F | wind direction | speed knots | gust knots | rain 1hr in | rain 24hr in | rain mn in | humidity % | barometer mb |
| 20260505022537 | 66 | 179 | 0.0 | 0.9 | 0.00 | 0.00 | 0.00 | 35 | 1005.1 |
| 20260505021534 | 68 | 172 | 0.9 | 1.7 | 0.00 | 0.00 | 0.00 | 35 | 1005.0 |
| 20260505020531 | 69 | 188 | 0.9 | 1.7 | 0.00 | 0.00 | 0.00 | 34 | 1005.0 |
| 20260505015528 | 70 | 184 | 0.9 | 2.6 | 0.00 | 0.00 | 0.00 | 32 | 1004.9 |
| 20260505014526 | 70 | 187 | 0.9 | 3.5 | 0.00 | 0.00 | 0.00 | 31 | 1004.8 |
| 20260505013523 | 70 | 199 | 1.7 | 3.5 | 0.00 | 0.00 | 0.00 | 31 | 1004.8 |
| 20260505012541 | 72 | 186 | 2.6 | 6.1 | 0.00 | 0.00 | 0.00 | 29 | 1004.9 |
| 20260505011543 | 72 | 185 | 1.7 | 6.1 | 0.00 | 0.00 | 0.00 | 29 | 1005.0 |
| 20260505010535 | 72 | 229 | 4.3 | 9.6 | 0.00 | 0.00 | 0.00 | 28 | 1004.9 |
| 20260505005614 | 73 | 232 | 4.3 | 7.8 | 0.00 | 0.00 | 0.00 | 28 | 1005.1 |
| 20260505004530 | 74 | 222 | 3.5 | 7.0 | 0.00 | 0.00 | 0.00 | 27 | 1005.1 |
| 20260505003527 | 73 | 225 | 4.3 | 7.8 | 0.00 | 0.00 | 0.00 | 28 | 1005.1 |
| 20260505002525 | 72 | 234 | 5.2 | 8.7 | 0.00 | 0.00 | 0.00 | 29 | 1005.3 |
| 20260505001542 | 72 | 239 | 7.0 | 12.2 | 0.00 | 0.00 | 0.00 | 29 | 1005.3 |
| 20260505000541 | 73 | 234 | 6.1 | 12.2 | 0.00 | 0.00 | 0.00 | 28 | 1005.5 |
| 20260504235555 | 73 | 226 | 4.3 | 7.8 | 0.00 | 0.00 | 0.00 | 29 | 1005.5 |
| 20260504234552 | 73 | 230 | 5.2 | 9.6 | 0.00 | 0.00 | 0.00 | 30 | 1005.5 |
| 20260504233530 | 73 | 234 | 7.0 | 12.2 | 0.00 | 0.00 | 0.00 | 28 | 1005.4 |
| 20260504232607 | 72 | 234 | 7.0 | 13.0 | 0.00 | 0.00 | 0.00 | 31 | 1005.5 |
| 20260504231543 | 73 | 238 | 8.7 | 13.0 | 0.00 | 0.00 | 0.00 | 30 | 1005.5 |
| 20260504230540 | 73 | 235 | 7.8 | 13.0 | 0.00 | 0.00 | 0.00 | 30 | 1005.5 |
| 20260504225620 | 73 | 227 | 7.8 | 13.9 | 0.00 | 0.00 | 0.00 | 32 | 1005.4 |
| 20260504224534 | 78 | 235 | 5.2 | 11.3 | 0.00 | 0.00 | 0.00 | 22 | 1005.4 |
| 20260504223553 | 76 | 231 | 4.3 | 7.0 | 0.00 | 0.00 | 0.00 | 22 | 1005.3 |
| 20260504222549 | 76 | 233 | 6.1 | 7.8 | 0.00 | 0.00 | 0.00 | 22 | 1005.4 |
| 20260504221531 | 77 | 230 | 6.1 | 9.6 | 0.00 | 0.00 | 0.00 | 23 | 1005.5 |
| 20260504220523 | 78 | 237 | 1.7 | 3.5 | 0.00 | 0.00 | 0.00 | 20 | 1005.7 |
| 20260504215540 | 78 | 213 | 2.6 | 3.5 | 0.00 | 0.00 | 0.00 | 21 | 1005.8 |
| 20260504214538 | 78 | 233 | 1.7 | 3.5 | 0.00 | 0.00 | 0.00 | 21 | 1006.0 |
| 20260504213535 | 79 | 233 | 1.7 | 3.5 | 0.00 | 0.00 | 0.00 | 21 | 1006.1 |
| 20260504212533 | 80 | 197 | 0.9 | 1.7 | 0.00 | 0.00 | 0.00 | 20 | 1006.3 |
| 20260504211529 | 78 | 229 | 1.7 | 2.6 | 0.00 | 0.00 | 0.00 | 22 | 1006.3 |
| 20260504210527 | 79 | 237 | 2.6 | 3.5 | 0.00 | 0.00 | 0.00 | 23 | 1006.6 |
| 20260504205524 | 77 | 54 | 0.9 | 1.7 | 0.00 | 0.00 | 0.00 | 20 | 1006.6 |
| 20260504204541 | 77 | 231 | 2.6 | 6.1 | 0.00 | 0.00 | 0.00 | 23 | 1006.8 |
| 20260504203538 | 77 | 302 | 1.7 | 5.2 | 0.00 | 0.00 | 0.00 | 21 | 1006.8 |
| 20260504202535 | 77 | 259 | 1.7 | 3.5 | 0.00 | 0.00 | 0.00 | 21 | 1007.0 |
| 20260504201532 | 75 | 246 | 2.6 | 7.0 | 0.00 | 0.00 | 0.00 | 23 | 1007.1 |
| 20260504200529 | 76 | 244 | 3.5 | 7.0 | 0.00 | 0.00 | 0.00 | 24 | 1007.3 |
| 20260504195526 | 76 | 232 | 2.6 | 7.0 | 0.00 | 0.00 | 0.00 | 25 | 1007.2 |
| 20260504194523 | 74 | 199 | 1.7 | 5.2 | 0.00 | 0.00 | 0.00 | 25 | 1007.4 |
| 20260504193540 | 75 | 239 | 3.5 | 7.8 | 0.00 | 0.00 | 0.00 | 26 | 1007.7 |
| 20260504192618 | 74 | 210 | 1.7 | 5.2 | 0.00 | 0.00 | 0.00 | 26 | 1007.7 |
| 20260504191554 | 75 | 210 | 1.7 | 3.5 | 0.00 | 0.00 | 0.00 | 24 | 1007.7 |
| 20260504190530 | 74 | 237 | 1.7 | 7.8 | 0.00 | 0.00 | 0.00 | 25 | 1007.9 |
| 20260504185527 | 74 | 230 | 3.5 | 7.0 | 0.00 | 0.00 | 0.00 | 26 | 1008.0 |
| 20260504184525 | 75 | 236 | 3.5 | 7.8 | 0.00 | 0.00 | 0.00 | 25 | 1008.1 |
| 20260504183540 | 73 | 237 | 3.5 | 7.0 | 0.00 | 0.00 | 0.00 | 26 | 1008.2 |
| 20260504182559 | 74 | 204 | 2.6 | 6.1 | 0.00 | 0.00 | 0.00 | 26 | 1008.4 |
| 20260504181535 | 74 | 202 | 1.7 | 5.2 | 0.00 | 0.00 | 0.00 | 27 | 1008.6 |
| 20260504180532 | 72 | 229 | 2.6 | 6.1 | 0.00 | 0.00 | 0.00 | 28 | 1008.8 |
| 20260504175530 | 72 | 202 | 0.9 | 2.6 | 0.00 | 0.00 | 0.00 | 28 | 1008.6 |
| 20260504174526 | 72 | 198 | 1.7 | 2.6 | 0.00 | 0.00 | 0.00 | 29 | 1008.8 |
| 20260504173523 | 73 | 196 | 1.7 | 3.5 | 0.00 | 0.00 | 0.00 | 28 | 1008.9 |
| 20260504172601 | 73 | 194 | 1.7 | 3.5 | 0.00 | 0.00 | 0.00 | 29 | 1008.9 |
| 20260504171540 | 72 | 190 | 1.7 | 3.5 | 0.00 | 0.00 | 0.00 | 31 | 1008.9 |
| 20260504170534 | 71 | 213 | 1.7 | 5.2 | 0.00 | 0.00 | 0.00 | 31 | 1009.1 |
| 20260504150625 | 64 | 143 | 1.7 | 3.5 | 0.00 | 0.00 | 0.00 | 36 | 1009.3 |
| 20260504140603 | 57 | 116 | 1.7 | 2.6 | 0.00 | 0.00 | 0.00 | 42 | 1009.4 |
| 20260504130543 | 51 | 128 | 1.7 | 1.7 | 0.00 | 0.00 | 0.00 | 47 | 1009.3 |
| 20260504110528 | 54 | 106 | 1.7 | 2.6 | 0.00 | 0.00 | 0.00 | 41 | 1009.4 |
| 20260504100611 | 51 | 138 | 0.9 | 1.7 | 0.00 | 0.00 | 0.00 | 47 | 1009.1 |
| 20260504081539 | 53 | 167 | 0.9 | 0.9 | 0.00 | 0.00 | 0.00 | 56 | 1008.4 |
| 20260504080536 | 55 | 167 | 0.0 | 0.9 | 0.00 | 0.00 | 0.00 | 52 | 1008.5 |
| 20260504050543 | 61 | 104 | 0.9 | 1.7 | 0.00 | 0.00 | 0.00 | 26 | 1008.7 |
| 20260504045540 | 60 | 107 | 1.7 | 1.7 | 0.00 | 0.00 | 0.00 | 30 | 1008.8 |
| 20260504044537 | 61 | 143 | 0.9 | 0.9 | 0.00 | 0.00 | 0.00 | 31 | 1008.9 |
| 20260504043535 | 61 | 144 | 1.7 | 1.7 | 0.00 | 0.00 | 0.00 | 32 | 1008.8 |
| 20260504042532 | 62 | 141 | 1.7 | 1.7 | 0.00 | 0.00 | 0.00 | 30 | 1008.8 |
| 20260504041528 | 63 | 139 | 1.7 | 1.7 | 0.00 | 0.00 | 0.00 | 28 | 1008.9 |
| 20260504040526 | 63 | 127 | 0.9 | 0.9 | 0.00 | 0.00 | 0.00 | 28 | 1009.0 |
| 20260504035523 | 63 | 127 | 0.9 | 0.9 | 0.00 | 0.00 | 0.00 | 27 | 1009.0 |
| 20260504034541 | 63 | 128 | 0.9 | 0.9 | 0.00 | 0.00 | 0.00 | 29 | 1008.9 |
| 20260504033538 | 64 | 128 | 0.9 | 0.9 | 0.00 | 0.00 | 0.00 | 27 | 1008.9 |
| 20260504032540 | 65 | 128 | 0.9 | 0.9 | 0.00 | 0.00 | 0.00 | 26 | 1008.9 |
| 20260504031532 | 66 | 23 | 0.0 | 0.9 | 0.00 | 0.00 | 0.00 | 19 | 1008.8 |
| 20260504030530 | 66 | 23 | 0.0 | 0.0 | 0.00 | 0.00 | 0.00 | 19 | 1008.8 |
| 20260504025532 | 67 | 23 | 0.0 | 0.9 | 0.00 | 0.00 | 0.00 | 18 | 1008.8 |
| 20260504024544 | 67 | 23 | 0.9 | 0.9 | 0.00 | 0.00 | 0.00 | 18 | 1008.8 |
| 20260504023541 | 68 | 23 | 0.0 | 0.9 | 0.00 | 0.00 | 0.00 | 19 | 1008.9 |